User: anonymous   Login
Location: Unspecified
(0.0000°N, 0.0000°E)
Time: 00:04:30
(UTC+00:00)
Language:

STARLINK-32464 - Orbit

View from above orbital plane
View from above orbital plane
View from above satellite
View from above satellite

Ground track
Ground track

The orbit is defined by the following mean orbital elements,

1 62140U          26145.23954557 +.00000000 +00000-0 +54676-3 0 00005
2 62140  43.0017  86.1085 0001558 264.6287  95.4387 15.27597153    03
Epoch (UTC): 25 May 2026 05:44:56
Eccentricity: 0.0001558
inclination: 43.0017°
perigee height: 482 km
apogee height: 484 km
right ascension of ascending node: 86.1085°
argument of perigee: 264.6287°
revolutions per day: 15.27597153
mean anomaly at epoch: 95.4387°

The dashed part of the orbit path shows where the satellite is in the earth's shadow,  

DLR